Regional Weather Roundup
Issued by NWS

Home | Current Version | Previous Version | Text Only | Print | Product List | Glossary Off
Versions: 1 2 3 4 5 6 7 8 9 10 11 12 13 14 15 16 17 18 19 20 21 22 23 24 25 26 27 28 29 30 31 32 33 34 35 36 37 38 39 40 41 42 43 44 45 46 47 48 49 50

000
ASUS43 KOAX 262010
RWRNE

WEATHER ROUNDUP FOR NEBRASKA
NATIONAL WEATHER SERVICE OMAHA NE
300 PM CDT TUE MAY 26 2015

NOTES: SATELLITE DATA IS BEING USED TO AUGMENT CLOUD COVER ABOVE
       12000 FEET.
       "FAIR" INDICATES FEW OR NO CLOUDS BELOW 12,000 FEET WITH NO
       SIGNIFICANT WEATHER AND/OR OBSTRUCTIONS TO VISIBILITY.

  * THESE STATIONS DO NOT REPORT WEATHER SUCH AS RAIN...SNOW OR FOG.

NEZ001>004-019>022-054>056-262100-
NEBRASKA PANHANDLE

CITY           SKY/WX    TMP DP  RH WIND       PRES   REMARKS
SCOTTSBLUFF    MOSUNNY   67  53  61 SE10      29.99F
ALLIANCE       SUNNY     65  48  54 VRB5      30.00F
CHADRON        PTSUNNY   68  49  50 S7        29.98F
KIMBALL          N/A    N/A N/A N/A MISG        N/A
SIDNEY         CLOUDY    62  52  69 E3        30.03S
$$

NEZ057>060-069>072-079>082-262100-
SOUTHWEST NEBRASKA

CITY           SKY/WX    TMP DP  RH WIND       PRES   REMARKS
NORTH PLATTE   PTSUNNY   69  47  45 N7        29.99S
IMPERIAL       MOSUNNY   66  51  58 NE6       30.01S
LEXINGTON      PTSUNNY   68  52  58 N12       29.96F
MCCOOK         PTSUNNY   71  49  45 N13       29.97F
OGALLALA       MOSUNNY   65  48  53 NE5       30.01S
$$

NEZ005>010-023>029-035>040-094-262100-
NORTH CENTRAL NEBRASKA

CITY           SKY/WX    TMP DP  RH WIND       PRES   REMARKS
VALENTINE      MOSUNNY   71  47  42 NW8       29.96F
AINSWORTH      PTSUNNY   70  50  48 N9        29.96F
BROKEN BOW     CLOUDY    69  49  48 N12       29.96R
O`NEILL        CLOUDY    65  55  69 N15       29.93S
ORD            CLOUDY    66  49  54 N16       29.92R
THEDFORD       CLOUDY    66  47  50 CALM      29.99F
$$

NEZ041-046>049-061>064-073>077-083>087-262100-
SOUTH CENTRAL NEBRASKA

CITY           SKY/WX    TMP DP  RH WIND       PRES   REMARKS
GRAND ISLAND   PTSUNNY   67  52  58 NW10      29.92F
AURORA         CLOUDY    65  55  69 NW15      29.92R
HASTINGS       CLOUDY    65  51  60 NW16G22   29.93S
HEBRON         MOSUNNY   71  52  49 NW14      29.90R
HOLDREGE       MOSUNNY   67  49  53 NW10G20   29.95F
KEARNEY *      PTSUNNY   70  48  46 NW14G22   29.94S
YORK           CLOUDY    64  55  72 NW15G21   29.90S
$$

NEZ011>018-030>034-042>045-262100-
NORTHEAST NEBRASKA

CITY           SKY/WX    TMP DP  RH WIND       PRES   REMARKS
NORFOLK        CLOUDY    67  55  65 N10       29.87S
ALBION         PTSUNNY   66  51  59 N13G21    29.89S
BLAIR          CLOUDY    63  57  81 NW16      29.84R
COLUMBUS *       N/A    N/A N/A N/A MISG        N/A
FREMONT        CLOUDY    63  59  86 NW17      29.86S
TEKAMAH        CLOUDY    65  59  81 NW16      29.83R
WAYNE          CLOUDY    65  56  73 N9        29.86F
$$

NEZ050>053-065>068-078-088>093-262100-
SOUTHEAST NEBRASKA

CITY           SKY/WX    TMP DP  RH WIND       PRES   REMARKS
LINCOLN        CLOUDY    69  58  67 NW18      29.87R
OMAHA EPPLEY   CLOUDY    66  60  81 NW17      29.82R
BEATRICE       MOSUNNY   72  59  64 W21G28    29.87R
FALLS CITY     CLOUDY    71  60  68 W17       29.83R
NEBRASKA CITY  CLOUDY    68  64  86 NW10      29.84R
PLATTSMOUTH    CLOUDY    66  61  85 W14       29.84R
$$

NEZ044-045-051>053-067-262100-
OMAHA AREA

CITY           SKY/WX    TMP DP  RH WIND       PRES   REMARKS
OMAHA EPPLEY   CLOUDY    66  60  81 NW17      29.82R
BLAIR          CLOUDY    63  57  81 NW16      29.84R
FREMONT        CLOUDY    63  59  86 NW17      29.86S
MILLARD        CLOUDY    66  60  80 W12G20    29.84R
OFFUTT AFB     PTSUNNY   67  62  82 NW15      29.82R
PLATTSMOUTH    CLOUDY    66  61  85 W14       29.84R
WAHOO          CLOUDY    64  59  83 NW16      29.86R
$$


USA.gov is the U.S. government's official web portal to all federal, state and local government web resources and services.